When you browse on this site, cookies collect data to enhance your experience and personalize the content and advertising you see.
Visit our Privacy Policy to learn more. By continuing to use the site, you agree to this use of cookies and data.
EN

Hourly Weather Vidin

Today, 12 August, Wednesday

Time Temperature Precipitation Wind Pressure Humidity
00:00 +26°C° 0 mm 2 mps 758 mmHg 57%
01:00 +25°C° 0 mm 2 mps 758 mmHg 59%
02:00 +25°C° 0 mm 2 mps 758 mmHg 60%
03:00 +24°C° 0 mm 2 mps 758 mmHg 63%
04:00 +24°C° 0 mm 2 mps 758 mmHg 65%
05:00 +23°C° 0 mm 1 mps 758 mmHg 67%
06:00 +24°C° 0 mm 1 mps 758 mmHg 63%
07:00 +26°C° 0 mm 1 mps 758 mmHg 59%
08:00 +27°C° 0 mm 1 mps 758 mmHg 55%
09:00 +29°C° 0 mm 1 mps 758 mmHg 49%
10:00 +31°C° 0 mm 2 mps 758 mmHg 43%
11:00 +34°C° 0 mm 2 mps 758 mmHg 37%
12:00 +35°C° 0 mm 2 mps 758 mmHg 33%
13:00 +36°C° 0 mm 2 mps 758 mmHg 30%
14:00 +37°C° 0 mm 2 mps 757 mmHg 27%
15:00 +36°C° 0 mm 3 mps 757 mmHg 28%
16:00 +36°C° 0 mm 3 mps 757 mmHg 29%
17:00 +36°C° 0 mm 3 mps 757 mmHg 30%
18:00 +34°C° 0 mm 3 mps 757 mmHg 34%
19:00 +31°C° 0 mm 3 mps 758 mmHg 38%
20:00 +30°C° 0 mm 3 mps 758 mmHg 41%
21:00 +28°C° 0.1 mm 2 mps 758 mmHg 47%
22:00 +27°C° 0.1 mm 2 mps 758 mmHg 54%
23:00 +25°C° 0.1 mm 2 mps 759 mmHg 60%

Tomorrow, 13 August, Thursday

Time Temperature Precipitation Wind Pressure Humidity
00:00 +25°C° 0 mm 2 mps 759 mmHg 64%
01:00 +24°C° 0 mm 2 mps 759 mmHg 67%
02:00 +23°C° 0 mm 2 mps 759 mmHg 71%
03:00 +23°C° 0 mm 2 mps 759 mmHg 74%
04:00 +21°C° 0 mm 2 mps 759 mmHg 76%
05:00 +21°C° 0 mm 2 mps 759 mmHg 79%
06:00 +23°C° 0 mm 2 mps 759 mmHg 74%
07:00 +24°C° 0 mm 3 mps 760 mmHg 69%
08:00 +25°C° 0 mm 3 mps 760 mmHg 64%
09:00 +27°C° 0 mm 3 mps 760 mmHg 58%
10:00 +28°C° 0 mm 3 mps 760 mmHg 51%
11:00 +30°C° 0 mm 3 mps 760 mmHg 45%
12:00 +31°C° 0 mm 3 mps 759 mmHg 42%
13:00 +33°C° 0 mm 3 mps 759 mmHg 39%
14:00 +34°C° 0 mm 3 mps 759 mmHg 36%
15:00 +34°C° 0 mm 3 mps 758 mmHg 34%
16:00 +35°C° 0 mm 2 mps 758 mmHg 33%
17:00 +35°C° 0 mm 2 mps 758 mmHg 32%
18:00 +32°C° 0 mm 2 mps 758 mmHg 36%
19:00 +30°C° 0 mm 2 mps 758 mmHg 41%
20:00 +28°C° 0 mm 2 mps 758 mmHg 46%
21:00 +27°C° 0 mm 2 mps 758 mmHg 48%
22:00 +26°C° 0 mm 2 mps 758 mmHg 51%
23:00 +26°C° 0 mm 1 mps 758 mmHg 53%

Day after tomorrow, 14 August, Friday

Time Temperature Precipitation Wind Pressure Humidity
00:00 +25°C° 0 mm 1 mps 758 mmHg 56%
01:00 +24°C° 0 mm 1 mps 758 mmHg 58%
02:00 +24°C° 0 mm 1 mps 758 mmHg 61%
03:00 +23°C° 0 mm 1 mps 758 mmHg 62%
04:00 +23°C° 0 mm 1 mps 757 mmHg 64%
05:00 +22°C° 0 mm 1 mps 757 mmHg 65%
06:00 +24°C° 0 mm 1 mps 757 mmHg 60%
07:00 +23°C° 0 mm 0 mps 757 mmHg 55%
08:00 +25°C° 0 mm 0 mps 758 mmHg 50%
09:00 +29°C° 0 mm 1 mps 757 mmHg 45%
10:00 +31°C° 0 mm 1 mps 757 mmHg 39%
11:00 +33°C° 0 mm 1 mps 757 mmHg 34%
12:00 +34°C° 0 mm 1 mps 757 mmHg 31%
13:00 +36°C° 0 mm 2 mps 756 mmHg 28%
14:00 +36°C° 0 mm 2 mps 756 mmHg 24%
15:00 +37°C° 0 mm 2 mps 756 mmHg 24%
16:00 +37°C° 0 mm 2 mps 755 mmHg 23%
17:00 +37°C° 0 mm 2 mps 755 mmHg 22%
18:00 +35°C° 0 mm 2 mps 755 mmHg 26%
19:00 +31°C° 0 mm 2 mps 755 mmHg 29%
20:00 +29°C° 0 mm 2 mps 755 mmHg 32%
21:00 +28°C° 0 mm 2 mps 756 mmHg 35%
22:00 +27°C° 0 mm 1 mps 756 mmHg 37%
23:00 +26°C° 0 mm 1 mps 756 mmHg 40%

15 August, Saturday

Time Temperature Precipitation Wind Pressure Humidity
00:00 +26°C° 0 mm 1 mps 756 mmHg 42%
01:00 +25°C° 0 mm 1 mps 756 mmHg 45%
02:00 +24°C° 0 mm 1 mps 756 mmHg 47%
03:00 +24°C° 0 mm 1 mps 756 mmHg 52%
04:00 +23°C° 0 mm 2 mps 756 mmHg 56%
05:00 +23°C° 0 mm 2 mps 756 mmHg 60%
06:00 +24°C° 0.2 mm 2 mps 756 mmHg 59%
07:00 +25°C° 0.2 mm 2 mps 756 mmHg 58%
08:00 +26°C° 0.2 mm 2 mps 756 mmHg 56%
09:00 +27°C° 0.7 mm 2 mps 756 mmHg 54%
10:00 +28°C° 0.7 mm 2 mps 756 mmHg 52%
11:00 +29°C° 0.7 mm 2 mps 756 mmHg 50%
12:00 +30°C° 0.3 mm 3 mps 756 mmHg 46%
13:00 +31°C° 0.3 mm 3 mps 756 mmHg 42%
14:00 +33°C° 0.3 mm 3 mps 756 mmHg 38%
15:00 +33°C° 0 mm 4 mps 755 mmHg 38%
16:00 +33°C° 0 mm 4 mps 755 mmHg 38%
17:00 +33°C° 0 mm 5 mps 755 mmHg 38%
18:00 +29°C° 0.5 mm 4 mps 755 mmHg 51%
19:00 +26°C° 0.5 mm 3 mps 755 mmHg 64%
20:00 +23°C° 0.5 mm 2 mps 756 mmHg 76%
21:00 +23°C° 0.1 mm 2 mps 756 mmHg 77%
22:00 +21°C° 0.1 mm 2 mps 756 mmHg 79%
23:00 +21°C° 0.1 mm 2 mps 756 mmHg 80%

16 August, Sunday

Time Temperature Precipitation Wind Pressure Humidity
00:00 +21°C° 0 mm 2 mps 756 mmHg 80%
01:00 +20°C° 0 mm 2 mps 756 mmHg 81%
02:00 +21°C° 0 mm 1 mps 756 mmHg 81%
03:00 +21°C° 0 mm 1 mps 756 mmHg 83%
04:00 +19°C° 0 mm 2 mps 756 mmHg 85%
05:00 +19°C° 0 mm 2 mps 756 mmHg 87%
06:00 +20°C° 0 mm 2 mps 757 mmHg 82%
07:00 +21°C° 0 mm 2 mps 757 mmHg 78%
08:00 +22°C° 0 mm 3 mps 757 mmHg 73%
09:00 +25°C° 0 mm 3 mps 757 mmHg 65%
10:00 +27°C° 0 mm 3 mps 758 mmHg 57%
11:00 +29°C° 0 mm 3 mps 758 mmHg 48%
12:00 +30°C° 0 mm 3 mps 758 mmHg 44%
13:00 +33°C° 0 mm 4 mps 757 mmHg 39%
14:00 +34°C° 0 mm 4 mps 757 mmHg 35%
15:00 +33°C° 0 mm 5 mps 757 mmHg 35%
16:00 +33°C° 0 mm 6 mps 757 mmHg 36%
17:00 +32°C° 0 mm 7 mps 757 mmHg 37%
18:00 +29°C° 0 mm 6 mps 757 mmHg 41%
19:00 +27°C° 0 mm 5 mps 757 mmHg 44%
20:00 +25°C° 0 mm 5 mps 757 mmHg 48%
21:00 +23°C° 0 mm 4 mps 758 mmHg 52%
22:00 +22°C° 0 mm 3 mps 758 mmHg 55%
23:00 +20°C° 0 mm 2 mps 758 mmHg 59%

17 August, Monday

Time Temperature Precipitation Wind Pressure Humidity
00:00 +20°C° 0 mm 2 mps 758 mmHg 60%
01:00 +21°C° 0 mm 1 mps 758 mmHg 61%
02:00 +20°C° 0 mm 1 mps 758 mmHg 62%
03:00 +19°C° 0 mm 2 mps 758 mmHg 62%
04:00 +19°C° 0 mm 2 mps 759 mmHg 62%
05:00 +20°C° 0 mm 2 mps 759 mmHg 62%
06:00 +21°C° 0 mm 2 mps 759 mmHg 59%
07:00 +21°C° 0 mm 3 mps 759 mmHg 56%
08:00 +22°C° 0 mm 3 mps 759 mmHg 53%
09:00 +25°C° 0 mm 4 mps 759 mmHg 48%
10:00 +27°C° 0 mm 4 mps 759 mmHg 44%
11:00 +28°C° 0 mm 5 mps 760 mmHg 39%
12:00 +29°C° 0 mm 5 mps 759 mmHg 36%
13:00 +30°C° 0 mm 6 mps 759 mmHg 33%
14:00 +33°C° 0 mm 6 mps 759 mmHg 30%
15:00 +32°C° 0 mm 6 mps 758 mmHg 30%
16:00 +32°C° 0 mm 6 mps 758 mmHg 30%
17:00 +32°C° 0 mm 5 mps 758 mmHg 30%
18:00 +29°C° 0 mm 4 mps 758 mmHg 34%
19:00 +27°C° 0 mm 3 mps 758 mmHg 38%
20:00 +25°C° 0 mm 3 mps 758 mmHg 43%
21:00 +25°C° 0 mm 2 mps 759 mmHg 44%
22:00 +24°C° 0 mm 2 mps 759 mmHg 46%
23:00 +23°C° 0 mm 1 mps 759 mmHg 47%
Show more